Wind_Speed
9 9 9 9 10 11 13 15 17 18 19 20 22 25 28 30 31 31 32 33 34 36 38 41 43 46 49 52 56 59 63 67 70 73 77 82 86 90 93 90 85 80 78 78
9 8 8 8 9 11 14 15 17 18 21 22 23 25 28 28 28 29 29 31 33 36 39 42 45 47 51 54 57 61 64 68 71 75 79 82 87 90 90 86 81 78 78 78
8 7 6 7 9 11 13 15 17 19 20 21 23 23 25 26 26 27 29 32 35 38 40 43 45 48 52 55 58 62 66 69 72 76 80 83 88 90 87 82 78 77 78 79
7 6 5 5 8 10 12 15 17 19 20 22 23 23 25 27 28 30 31 34 36 39 41 43 46 49 53 55 59 63 67 70 73 76 80 84 87 87 84 79 77 77 78 77
7 5 3 4 6 9 11 14 16 17 19 21 23 24 27 29 31 32 33 35 38 39 41 44 47 50 53 56 59 64 68 70 73 77 80 84 86 85 81 77 76 76 77 75
7 5 3 3 5 7 10 13 14 16 19 21 24 26 29 32 33 35 37 38 40 41 42 45 48 51 53 56 60 64 68 71 73 77 81 84 85 82 79 76 75 75 75 73
8 6 4 3 4 6 9 11 13 17 20 22 24 28 31 33 36 39 41 42 43 44 45 47 49 51 53 56 60 65 68 70 73 77 81 84 83 80 77 74 74 74 73 72
9 7 5 4 4 6 8 11 14 17 19 21 25 29 32 35 39 41 43 45 47 48 49 50 51 53 54 57 61 65 68 70 73 77 80 83 82 79 75 73 73 73 72 71
11 9 7 5 4 6 8 10 13 14 17 20 24 28 32 36 39 42 44 47 50 53 54 55 55 55 55 58 61 65 68 70 73 76 80 82 80 77 74 72 72 72 71 70
12 10 8 7 6 6 7 10 12 15 19 22 25 28 32 36 39 42 46 49 53 56 58 59 58 57 57 59 62 66 68 69 72 76 79 81 79 75 72 71 71 71 70 69
13 11 10 8 7 8 9 11 13 16 20 24 27 29 31 35 38 42 47 51 54 58 60 62 62 61 59 60 63 66 68 69 72 76 79 79 78 74 71 70 69 69 69 68
14 13 12 11 10 10 11 13 14 17 19 22 25 29 32 35 39 43 47 51 55 59 62 64 66 65 63 62 64 66 68 69 72 75 78 78 77 73 70 68 68 68 68 67
16 15 14 14 13 13 14 15 16 18 20 22 25 28 33 36 39 44 48 52 56 60 64 66 68 68 66 64 65 67 68 69 72 75 77 78 76 72 69 67 67 67 67 66
18 17 17 17 16 16 16 17 19 21 22 24 26 28 31 36 40 44 48 53 57 60 64 68 70 71 69 66 66 67 68 69 71 74 77 77 75 71 68 66 66 66 66 65
19 19 20 19 19 18 18 20 21 23 25 27 29 31 33 36 40 44 48 53 57 61 64 68 71 73 72 69 67 68 68 68 70 73 76 76 75 71 67 65 64 64 65 65
22 22 22 22 22 22 21 22 23 25 27 29 31 32 35 37 41 44 48 53 57 61 65 69 72 73 74 72 68 68 68 68 69 72 75 75 74 71 67 64 63 63 64 64
25 25 26 25 25 26 24 24 25 26 28 31 32 34 37 39 42 45 48 52 57 62 66 69 72 74 76 74 70 68 68 68 69 71 73 74 74 71 66 63 62 62 62 63
28 29 30 29 28 29 26 27 28 29 30 32 33 35 38 41 43 47 49 52 56 61 65 68 71 74 76 76 72 69 68 68 68 70 72 73 73 70 66 63 61 61 61 61
31 32 33 33 33 31 29 30 31 33 32 33 35 37 40 42 44 47 50 52 56 60 64 68 71 73 76 77 75 70 68 68 68 69 71 72 72 69 66 62 60 60 60 60
33 35 36 37 37 36 31 32 35 37 36 36 38 39 41 44 47 49 51 53 56 59 63 67 70 73 75 77 76 71 68 67 67 68 69 71 71 69 65 62 60 59 59 59
36 38 39 39 41 39 35 36 39 40 41 41 42 43 44 45 48 50 53 54 56 58 62 66 70 71 74 76 76 72 68 67 66 66 68 70 69 68 65 62 60 58 57 58
39 41 41 42 42 40 38 39 41 43 44 44 46 47 47 48 49 51 53 55 56 57 60 64 68 70 73 75 75 72 68 66 65 65 66 68 69 67 65 61 59 57 56 55
42 42 44 44 43 40 39 40 43 46 47 47 49 49 50 50 51 52 54 55 55 56 58 62 67 69 71 73 74 72 69 66 64 64 64 66 68 67 65 61 58 56 54 53
45 44 46 46 42 38 39 41 44 48 50 50 52 52 52 52 52 52 53 55 55 55 56 60 65 67 69 71 72 72 69 65 63 62 63 64 66 67 65 61 58 55 53 51
50 48 46 45 39 36 37 40 43 46 50 52 53 53 53 54 53 52 53 54 54 53 54 58 63 66 67 69 70 71 69 65 62 61 61 62 64 65 65 63 58 55 53 51
57 53 50 47 41 41 40 38 39 43 48 51 53 53 53 54 54 52 52 53 53 52 53 56 61 64 65 67 68 69 68 64 62 60 59 60 62 63 64 63 60 55 52 51
Wind_Direction
339 340 346 353 359 359 358 357 354 350 346 341 335 330 331 332 332 331 330 327 325 324 323 323 323 323 323 323 323 323 324 324 325 326 326 326 324 323 322 322 322 322 322 321
331 334 339 351 357 360 360 359 356 353 347 343 340 336 338 340 339 337 334 330 327 325 325 325 326 325 325 324 324 325 325 326 327 328 328 327 326 325 325 325 325 325 325 324
320 323 334 353 2 4 3 2 359 356 354 351 351 348 350 351 348 344 339 334 329 328 327 327 327 327 326 326 326 326 327 329 330 330 330 329 328 327 327 328 328 328 328 327
302 306 328 0 8 9 8 10 7 3 1 2 2 4 1 359 355 349 343 337 333 331 331 330 329 328 327 327 327 328 329 331 332 332 331 332 331 330 330 331 331 331 331 331
286 292 321 1 14 17 16 17 15 13 12 11 12 11 8 5 1 355 349 344 341 337 335 333 331 330 329 329 329 330 332 333 334 334 334 334 333 332 333 334 334 334 334 335
275 277 298 346 13 21 24 25 23 22 22 20 18 16 14 12 8 4 359 354 349 344 340 337 335 333 332 332 332 333 334 335 335 336 336 335 335 335 335 336 336 337 338 339
268 266 276 315 357 17 25 28 28 28 26 26 20 20 19 16 14 11 7 2 357 352 347 342 339 337 336 335 335 335 337 337 337 338 338 338 337 337 338 338 339 341 342 342
263 259 265 292 335 1 16 23 27 28 26 24 22 21 19 18 16 14 10 7 3 359 354 349 344 341 339 338 337 338 338 339 339 340 340 340 340 339 340 340 342 344 345 346
257 256 259 278 317 348 2 13 20 21 21 19 19 17 16 15 15 12 10 7 5 3 359 354 349 345 342 340 340 340 340 341 341 342 342 342 342 342 342 343 344 346 348 349
254 253 256 270 297 325 345 358 3 7 10 12 11 11 10 11 9 8 7 5 4 3 1 357 353 348 344 343 342 342 342 343 343 343 344 344 344 344 344 345 347 349 350 352
252 253 256 267 287 311 328 340 350 357 360 0 3 2 4 4 4 3 3 2 1 1 0 358 355 351 347 344 343 343 344 344 345 345 346 346 346 345 346 348 349 351 353 354
251 253 255 264 279 296 311 325 336 345 351 353 355 353 358 359 0 0 360 359 359 359 359 358 356 353 349 346 345 345 345 346 347 347 347 348 348 347 348 350 351 353 355 356
253 254 257 263 275 289 301 313 323 332 339 344 348 351 352 355 357 358 357 357 357 357 358 357 356 355 351 348 346 346 347 347 348 348 349 350 349 349 350 352 353 355 357 358
255 256 259 265 273 284 295 305 313 321 329 335 340 345 348 351 354 355 356 356 355 356 357 357 356 355 352 349 347 347 348 348 349 350 350 351 351 351 351 353 355 357 358 360
257 258 261 265 271 279 289 298 307 314 321 327 334 338 343 347 349 352 354 354 354 354 355 356 355 355 353 350 348 348 349 349 350 351 351 352 353 352 353 354 356 358 359 1
259 259 262 266 271 276 283 293 302 309 314 321 326 332 337 341 344 348 351 352 352 353 353 354 354 354 353 351 348 348 349 350 350 351 352 353 354 354 354 355 357 359 1 2
260 262 264 267 272 277 284 289 297 304 311 316 322 326 331 336 340 343 347 349 350 351 352 352 353 353 353 351 349 348 349 350 351 352 353 354 355 355 355 355 357 360 2 3
261 263 267 270 272 276 284 285 291 299 308 312 317 321 325 331 335 338 342 345 347 349 350 351 351 351 352 351 349 348 349 350 351 352 353 354 355 356 356 356 357 360 2 4
262 264 268 272 275 279 281 285 289 295 303 308 313 317 321 325 329 333 337 341 344 346 348 349 350 350 350 351 350 348 349 350 351 352 353 355 356 357 357 357 357 360 2 4
263 264 267 271 275 280 284 286 289 293 298 302 307 312 317 320 324 329 332 337 340 342 345 347 348 348 349 349 349 348 348 350 351 352 353 355 356 357 357 357 358 359 1 4
262 263 266 270 273 279 285 287 289 291 295 299 303 307 311 316 320 324 327 332 337 339 342 344 346 347 347 348 349 348 347 349 351 353 353 354 356 357 358 358 359 360 1 3
265 265 266 267 271 277 280 283 285 287 291 295 299 302 307 311 315 319 322 327 332 336 338 341 343 345 346 347 348 348 347 348 351 352 353 354 356 357 358 358 359 1 2 3
267 268 268 269 272 276 279 280 282 285 289 292 295 298 303 306 310 314 318 322 327 332 335 338 341 342 344 345 346 347 347 347 349 352 353 354 355 357 358 359 360 1 2 3
268 268 269 271 274 278 278 278 280 282 286 288 291 295 299 302 306 310 314 318 323 327 331 335 338 340 342 343 345 346 346 346 348 351 352 354 355 356 358 360 0 1 2 3
268 269 271 273 277 278 276 277 278 280 283 285 288 292 295 298 302 306 310 313 318 323 328 332 335 337 339 341 343 345 345 345 347 349 351 353 354 355 357 359 0 1 1 3
266 269 272 274 276 276 274 274 275 276 278 281 285 289 292 295 298 303 306 309 314 319 324 328 332 335 337 339 341 343 345 345 346 348 350 352 353 354 356 358 359 0 1 2
Height
5899 5899 5896 5894 5892 5890 5888 5886 5883 5880 5877 5873 5870 5866 5862 5858 5853 5848 5843 5837 5831 5825 5819 5813 5805 5796 5787 5778 5768 5757 5745 5733 5719 5704 5687 5669 5650 5628 5606 5584 5565 5547 5531 5514
5899 5897 5896 5893 5891 5889 5886 5884 5881 5878 5874 5871 5868 5863 5859 5854 5850 5844 5839 5833 5827 5820 5814 5806 5798 5789 5779 5769 5759 5747 5735 5721 5707 5691 5674 5655 5634 5612 5590 5569 5549 5531 5515 5498
5898 5897 5894 5892 5890 5887 5885 5882 5880 5877 5873 5869 5866 5862 5857 5852 5846 5841 5835 5828 5822 5815 5807 5799 5790 5781 5771 5761 5750 5738 5725 5711 5695 5678 5660 5640 5618 5595 5574 5554 5536 5518 5500 5481
5897 5895 5893 5891 5888 5886 5884 5881 5878 5874 5871 5867 5864 5860 5854 5849 5843 5837 5831 5824 5816 5809 5801 5793 5784 5774 5763 5753 5741 5729 5715 5700 5684 5666 5647 5627 5605 5583 5562 5542 5523 5505 5486 5467
5895 5894 5892 5890 5888 5885 5883 5880 5877 5873 5869 5866 5862 5857 5853 5846 5840 5834 5827 5819 5811 5803 5795 5786 5777 5766 5756 5744 5732 5719 5705 5689 5673 5655 5635 5614 5592 5570 5549 5531 5512 5494 5474 5454
5894 5892 5891 5889 5887 5884 5882 5880 5876 5873 5869 5865 5860 5856 5850 5844 5838 5831 5823 5815 5807 5799 5790 5780 5770 5759 5748 5736 5723 5709 5694 5678 5662 5643 5623 5602 5580 5559 5539 5521 5503 5484 5464 5444
5892 5891 5889 5887 5885 5884 5881 5879 5876 5871 5867 5864 5859 5853 5849 5842 5835 5827 5819 5811 5803 5794 5784 5774 5763 5751 5739 5727 5714 5700 5684 5668 5651 5632 5612 5591 5570 5549 5530 5512 5494 5475 5456 5436
5889 5889 5887 5885 5884 5882 5879 5877 5874 5870 5865 5862 5856 5851 5846 5839 5831 5823 5816 5808 5799 5789 5779 5768 5756 5744 5731 5719 5705 5691 5675 5659 5641 5622 5602 5582 5561 5540 5522 5504 5486 5467 5448 5428
5887 5886 5885 5883 5881 5880 5877 5874 5871 5868 5864 5859 5854 5849 5842 5835 5828 5821 5813 5804 5794 5784 5773 5761 5749 5736 5724 5711 5697 5683 5667 5651 5633 5614 5594 5574 5553 5533 5515 5497 5479 5460 5441 5422
5884 5883 5882 5880 5879 5877 5875 5872 5869 5865 5860 5856 5851 5845 5839 5831 5825 5817 5809 5799 5790 5779 5768 5756 5743 5730 5717 5704 5690 5675 5659 5643 5625 5607 5587 5567 5546 5526 5509 5491 5473 5455 5437 5418
5880 5880 5879 5878 5876 5874 5872 5869 5865 5861 5856 5851 5846 5843 5836 5829 5821 5814 5805 5795 5785 5774 5762 5750 5737 5724 5710 5697 5683 5669 5653 5636 5618 5600 5580 5560 5540 5521 5504 5486 5469 5452 5434 5416
5876 5876 5875 5874 5873 5870 5868 5865 5862 5859 5854 5848 5844 5841 5832 5825 5817 5809 5801 5791 5781 5770 5758 5745 5732 5718 5704 5691 5677 5662 5646 5629 5612 5594 5575 5555 5535 5517 5500 5483 5466 5449 5431 5414
5872 5872 5871 5870 5871 5867 5864 5861 5858 5855 5851 5846 5841 5838 5828 5821 5814 5806 5797 5787 5777 5765 5753 5740 5727 5713 5699 5685 5671 5656 5640 5624 5607 5589 5570 5551 5532 5514 5497 5481 5464 5447 5430 5413
5868 5867 5868 5867 5865 5862 5860 5857 5854 5850 5846 5842 5837 5833 5826 5818 5810 5802 5793 5783 5773 5761 5749 5736 5723 5709 5694 5680 5665 5651 5635 5619 5602 5585 5566 5547 5529 5511 5495 5479 5463 5447 5430 5413
5862 5862 5861 5860 5859 5857 5855 5852 5849 5845 5841 5837 5833 5827 5821 5814 5806 5798 5789 5779 5768 5757 5745 5732 5718 5705 5690 5675 5661 5646 5631 5615 5599 5581 5563 5545 5527 5509 5493 5478 5462 5447 5430 5414
5857 5857 5856 5855 5853 5851 5850 5847 5843 5840 5836 5832 5827 5822 5816 5809 5801 5793 5785 5775 5764 5753 5741 5728 5715 5701 5686 5671 5657 5642 5627 5612 5595 5578 5561 5543 5525 5508 5492 5477 5463 5447 5431 5415
5851 5850 5849 5849 5847 5845 5844 5842 5838 5835 5831 5827 5822 5817 5810 5804 5796 5788 5780 5771 5760 5748 5737 5724 5711 5697 5683 5668 5653 5639 5624 5608 5592 5576 5559 5541 5524 5507 5492 5477 5463 5448 5433 5418
5844 5843 5841 5841 5840 5838 5841 5835 5832 5829 5826 5821 5816 5810 5805 5798 5791 5782 5774 5765 5755 5744 5733 5720 5707 5694 5680 5665 5650 5635 5621 5605 5590 5574 5557 5540 5523 5507 5491 5477 5464 5450 5435 5421
5836 5835 5834 5833 5831 5831 5832 5829 5825 5822 5820 5814 5809 5804 5798 5792 5786 5778 5769 5760 5751 5740 5729 5717 5704 5691 5676 5662 5647 5632 5618 5603 5588 5573 5557 5540 5523 5507 5492 5478 5464 5451 5438 5424
5828 5827 5826 5824 5822 5822 5826 5822 5817 5814 5812 5808 5802 5797 5792 5785 5779 5773 5764 5755 5745 5735 5724 5712 5700 5687 5673 5659 5645 5630 5616 5601 5587 5572 5556 5539 5523 5508 5493 5479 5465 5451 5438 5425
5819 5817 5816 5815 5811 5813 5816 5812 5808 5805 5803 5798 5793 5789 5784 5778 5771 5765 5756 5748 5739 5729 5719 5708 5696 5684 5671 5657 5643 5628 5614 5600 5586 5571 5555 5540 5524 5508 5494 5480 5467 5453 5440 5426
5809 5807 5807 5805 5804 5807 5805 5802 5798 5795 5792 5788 5783 5779 5775 5770 5764 5757 5749 5741 5732 5724 5713 5703 5692 5680 5668 5654 5641 5626 5612 5598 5584 5570 5556 5541 5525 5510 5495 5481 5468 5455 5442 5430
5798 5798 5796 5796 5798 5797 5795 5791 5787 5783 5781 5778 5774 5770 5766 5761 5755 5749 5742 5734 5726 5717 5708 5698 5688 5676 5664 5651 5638 5624 5610 5596 5583 5570 5556 5542 5527 5512 5498 5484 5471 5458 5446 5434
5786 5786 5785 5785 5788 5787 5783 5780 5776 5772 5769 5766 5762 5760 5756 5751 5746 5741 5734 5726 5719 5711 5702 5693 5683 5672 5661 5648 5635 5622 5608 5594 5581 5569 5556 5542 5528 5513 5499 5486 5473 5461 5450 5439
5772 5772 5773 5773 5776 5774 5772 5768 5765 5761 5757 5753 5751 5748 5744 5740 5736 5731 5725 5718 5711 5704 5696 5687 5678 5668 5657 5645 5632 5619 5606 5592 5580 5567 5555 5541 5528 5514 5500 5487 5475 5463 5451 5440
5758 5761 5761 5761 5763 5759 5759 5756 5752 5749 5745 5742 5739 5736 5732 5728 5724 5720 5715 5709 5703 5696 5689 5681 5672 5663 5652 5641 5629 5616 5603 5590 5578 5566 5554 5541 5527 5513 5499 5486 5474 5463 5453 5441